When you browse on this site, cookies collect data to enhance your experience and personalize the content and advertising you see.
Visit our Privacy Policy to learn more. By continuing to use the site, you agree to this use of cookies and data.
  • In Österreich
  • Länderverzeichnis
  • Für 7 Tage
  • Wassertemperatur
  • Satellitenkarten
  • Wetterkarte
  • News
  • Widgets
  • user-avatar
    Anmelden

    Stündliche Wetter Dubovka

    Heute, 17 Juli, Mittwoch

    Zeit Temperatur Niederschläge Wind Luftdruck Luftfeuchtigkeit
    00:00 +11°C° 0 mm 3 m/S 743 mmHg 93%
    01:00 +11°C° 0 mm 3 m/S 743 mmHg 94%
    02:00 +10°C° 0 mm 3 m/S 744 mmHg 96%
    03:00 +10°C° 0 mm 3 m/S 744 mmHg 97%
    04:00 +10°C° 0 mm 3 m/S 744 mmHg 97%
    05:00 +10°C° 0 mm 3 m/S 743 mmHg 98%
    06:00 +11°C° 0 mm 3 m/S 743 mmHg 94%
    07:00 +13°C° 0 mm 3 m/S 743 mmHg 90%
    08:00 +14°C° 0 mm 3 m/S 743 mmHg 87%
    09:00 +16°C° 0.3 mm 3 m/S 743 mmHg 82%
    10:00 +17°C° 0.3 mm 3 m/S 743 mmHg 78%
    11:00 +18°C° 0.3 mm 3 m/S 743 mmHg 73%
    12:00 +18°C° 0.7 mm 4 m/S 743 mmHg 74%
    13:00 +18°C° 0.7 mm 4 m/S 742 mmHg 74%
    14:00 +18°C° 0.7 mm 4 m/S 742 mmHg 75%
    15:00 +18°C° 0.3 mm 4 m/S 742 mmHg 74%
    16:00 +18°C° 0.3 mm 3 m/S 742 mmHg 73%
    17:00 +18°C° 0.3 mm 3 m/S 742 mmHg 71%
    18:00 +17°C° 0.2 mm 2 m/S 742 mmHg 77%
    19:00 +16°C° 0.2 mm 2 m/S 742 mmHg 82%
    20:00 +15°C° 0.2 mm 2 m/S 742 mmHg 88%
    21:00 +14°C° 0 mm 2 m/S 742 mmHg 90%
    22:00 +13°C° 0 mm 2 m/S 743 mmHg 92%
    23:00 +11°C° 0 mm 3 m/S 743 mmHg 94%

    Morgen, 18 Juli, Donnerstag

    Zeit Temperatur Niederschläge Wind Luftdruck Luftfeuchtigkeit
    00:00 +11°C° 0 mm 3 m/S 743 mmHg 95%
    01:00 +11°C° 0 mm 3 m/S 743 mmHg 95%
    02:00 +10°C° 0 mm 3 m/S 743 mmHg 96%
    03:00 +10°C° 0 mm 3 m/S 743 mmHg 97%
    04:00 +10°C° 0 mm 3 m/S 743 mmHg 97%
    05:00 +10°C° 0 mm 4 m/S 743 mmHg 98%
    06:00 +11°C° 0 mm 4 m/S 743 mmHg 96%
    07:00 +12°C° 0 mm 4 m/S 744 mmHg 94%
    08:00 +14°C° 0 mm 5 m/S 744 mmHg 92%
    09:00 +15°C° 0 mm 5 m/S 744 mmHg 89%
    10:00 +16°C° 0 mm 5 m/S 744 mmHg 86%
    11:00 +17°C° 0 mm 5 m/S 745 mmHg 83%
    12:00 +19°C° 0.3 mm 5 m/S 745 mmHg 79%
    13:00 +20°C° 0.3 mm 5 m/S 745 mmHg 76%
    14:00 +21°C° 0.3 mm 5 m/S 745 mmHg 72%
    15:00 +21°C° 0.5 mm 5 m/S 745 mmHg 74%
    16:00 +21°C° 0.5 mm 5 m/S 745 mmHg 75%
    17:00 +21°C° 0.5 mm 4 m/S 745 mmHg 77%
    18:00 +20°C° 0.2 mm 4 m/S 745 mmHg 81%
    19:00 +18°C° 0.2 mm 3 m/S 745 mmHg 84%
    20:00 +17°C° 0.2 mm 3 m/S 745 mmHg 88%
    21:00 +16°C° 0 mm 3 m/S 746 mmHg 90%
    22:00 +14°C° 0 mm 3 m/S 746 mmHg 92%
    23:00 +13°C° 0 mm 3 m/S 747 mmHg 93%

    übermorgen, 19 Juli, Freitag

    Zeit Temperatur Niederschläge Wind Luftdruck Luftfeuchtigkeit
    00:00 +13°C° 0 mm 3 m/S 747 mmHg 94%
    01:00 +13°C° 0 mm 3 m/S 747 mmHg 94%
    02:00 +12°C° 0 mm 3 m/S 747 mmHg 94%
    03:00 +12°C° 0 mm 3 m/S 747 mmHg 95%
    04:00 +13°C° 0 mm 2 m/S 747 mmHg 95%
    05:00 +13°C° 0 mm 2 m/S 748 mmHg 95%
    06:00 +15°C° 0 mm 2 m/S 748 mmHg 92%
    07:00 +16°C° 0 mm 2 m/S 748 mmHg 88%
    08:00 +18°C° 0 mm 2 m/S 748 mmHg 85%
    09:00 +19°C° 0.1 mm 3 m/S 748 mmHg 79%
    10:00 +21°C° 0.1 mm 3 m/S 748 mmHg 73%
    11:00 +22°C° 0.1 mm 3 m/S 749 mmHg 67%
    12:00 +22°C° 0.2 mm 4 m/S 748 mmHg 64%
    13:00 +23°C° 0.2 mm 4 m/S 748 mmHg 60%
    14:00 +25°C° 0.2 mm 4 m/S 748 mmHg 57%
    15:00 +23°C° 0.1 mm 4 m/S 748 mmHg 59%
    16:00 +24°C° 0.1 mm 3 m/S 748 mmHg 61%
    17:00 +24°C° 0.1 mm 3 m/S 748 mmHg 63%
    18:00 +23°C° 0.1 mm 2 m/S 748 mmHg 69%
    19:00 +20°C° 0.1 mm 2 m/S 749 mmHg 75%
    20:00 +19°C° 0.1 mm 1 m/S 749 mmHg 82%
    21:00 +19°C° 0 mm 1 m/S 749 mmHg 83%
    22:00 +18°C° 0 mm 1 m/S 749 mmHg 85%
    23:00 +16°C° 0 mm 1 m/S 750 mmHg 87%

    20 Juli, Samstag

    Zeit Temperatur Niederschläge Wind Luftdruck Luftfeuchtigkeit
    00:00 +16°C° 0 mm 1 m/S 750 mmHg 88%
    01:00 +15°C° 0 mm 1 m/S 750 mmHg 90%
    02:00 +15°C° 0 mm 1 m/S 750 mmHg 91%
    03:00 +15°C° 0 mm 1 m/S 750 mmHg 91%
    04:00 +15°C° 0 mm 1 m/S 750 mmHg 91%
    05:00 +15°C° 0 mm 1 m/S 750 mmHg 91%
    06:00 +16°C° 0 mm 1 m/S 750 mmHg 86%
    07:00 +19°C° 0 mm 1 m/S 750 mmHg 81%
    08:00 +21°C° 0 mm 1 m/S 751 mmHg 76%
    09:00 +22°C° 0.1 mm 1 m/S 751 mmHg 71%
    10:00 +23°C° 0.1 mm 2 m/S 751 mmHg 66%
    11:00 +25°C° 0.1 mm 2 m/S 751 mmHg 61%
    12:00 +25°C° 0.1 mm 2 m/S 751 mmHg 58%
    13:00 +26°C° 0.1 mm 2 m/S 751 mmHg 56%
    14:00 +26°C° 0.1 mm 2 m/S 751 mmHg 53%
    15:00 +26°C° 0.2 mm 2 m/S 751 mmHg 55%
    16:00 +26°C° 0.2 mm 1 m/S 751 mmHg 56%
    17:00 +26°C° 0.2 mm 1 m/S 751 mmHg 58%
    18:00 +24°C° 0 mm 1 m/S 751 mmHg 64%
    19:00 +22°C° 0 mm 1 m/S 751 mmHg 70%
    20:00 +21°C° 0 mm 1 m/S 751 mmHg 77%
    21:00 +20°C° 0 mm 1 m/S 751 mmHg 80%
    22:00 +19°C° 0 mm 1 m/S 751 mmHg 83%
    23:00 +18°C° 0 mm 1 m/S 752 mmHg 86%

    21 Juli, Sonntag

    Zeit Temperatur Niederschläge Wind Luftdruck Luftfeuchtigkeit
    00:00 +18°C° 0 mm 1 m/S 752 mmHg 86%
    01:00 +15°C° 0 mm 0 m/S 752 mmHg 87%
    02:00 +15°C° 0 mm 0 m/S 752 mmHg 87%
    03:00 +15°C° 0 mm 0 m/S 752 mmHg 87%
    04:00 +15°C° 0 mm 0 m/S 752 mmHg 87%
    05:00 +15°C° 0 mm 1 m/S 752 mmHg 88%
    06:00 +18°C° 0 mm 1 m/S 752 mmHg 83%
    07:00 +20°C° 0 mm 1 m/S 752 mmHg 78%
    08:00 +22°C° 0 mm 1 m/S 752 mmHg 73%
    09:00 +24°C° 0 mm 1 m/S 752 mmHg 67%
    10:00 +25°C° 0 mm 1 m/S 752 mmHg 62%
    11:00 +27°C° 0 mm 1 m/S 752 mmHg 57%
    12:00 +27°C° 0 mm 1 m/S 752 mmHg 55%
    13:00 +27°C° 0 mm 1 m/S 752 mmHg 52%
    14:00 +28°C° 0 mm 1 m/S 751 mmHg 50%
    15:00 +28°C° 0 mm 1 m/S 751 mmHg 51%
    16:00 +28°C° 0 mm 1 m/S 751 mmHg 53%
    17:00 +27°C° 0 mm 1 m/S 751 mmHg 55%
    18:00 +26°C° 0 mm 1 m/S 751 mmHg 61%
    19:00 +24°C° 0 mm 1 m/S 751 mmHg 67%
    20:00 +21°C° 0 mm 2 m/S 751 mmHg 73%
    21:00 +21°C° 0.2 mm 2 m/S 751 mmHg 75%
    22:00 +20°C° 0.2 mm 2 m/S 751 mmHg 77%
    23:00 +19°C° 0.2 mm 2 m/S 751 mmHg 79%

    22 Juli, Montag

    Zeit Temperatur Niederschläge Wind Luftdruck Luftfeuchtigkeit
    00:00 +19°C° 0.2 mm 2 m/S 750 mmHg 82%
    01:00 +18°C° 0.2 mm 2 m/S 750 mmHg 85%
    02:00 +18°C° 0.2 mm 2 m/S 750 mmHg 88%
    03:00 +18°C° 0 mm 2 m/S 750 mmHg 88%
    04:00 +18°C° 0 mm 2 m/S 750 mmHg 89%
    05:00 +17°C° 0 mm 2 m/S 750 mmHg 89%
    06:00 +19°C° 0.3 mm 2 m/S 750 mmHg 88%
    07:00 +20°C° 0.3 mm 2 m/S 750 mmHg 87%
    08:00 +21°C° 0.3 mm 2 m/S 750 mmHg 85%
    09:00 +22°C° 1.2 mm 3 m/S 750 mmHg 82%
    10:00 +24°C° 1.2 mm 3 m/S 750 mmHg 78%
    11:00 +25°C° 1.2 mm 3 m/S 750 mmHg 74%
    12:00 +25°C° 1.1 mm 3 m/S 750 mmHg 73%
    13:00 +26°C° 1.1 mm 3 m/S 750 mmHg 72%
    14:00 +26°C° 1.1 mm 3 m/S 750 mmHg 72%
    15:00 +26°C° 0.7 mm 2 m/S 749 mmHg 72%
    16:00 +26°C° 0.7 mm 2 m/S 749 mmHg 72%
    17:00 +26°C° 0.7 mm 2 m/S 749 mmHg 73%
    18:00 +24°C° 0.7 mm 2 m/S 749 mmHg 78%
    19:00 +23°C° 0.7 mm 2 m/S 749 mmHg 84%
    20:00 +20°C° 0.7 mm 2 m/S 749 mmHg 89%
    21:00 +20°C° 0.2 mm 2 m/S 749 mmHg 90%
    22:00 +19°C° 0.2 mm 2 m/S 749 mmHg 91%
    23:00 +18°C° 0.2 mm 2 m/S 749 mmHg 92%
    Mehr zeigen